Volver al catálogo

USA 176

ActivoMilitarGEO
NORAD 28158·PAYLOAD·🇺🇸 United States

Lanzado Feb 14, 2004 desde Cape Canaveral Space Force Station

Loading…

TLE

ActualizadoSource: Space-Track

Época: Sep 14, 2026, 06:40 UTC

1 28158U 04004A   26257.27837098 -.00000247  00000-0  00000-0 0  9992
2 28158  12.1695  25.3776 0009872 359.4518   9.9222  0.99467892 33836

Sigue USA 176 en tiempo real con AllMySat

Download on the App Store